Regional Weather Roundup
Issued by NWS

Home | Current Version | Previous Version | Text Only | Print | Product List | Glossary On
Versions: 1 2 3 4 5 6 7 8 9 10 11 12 13 14 15 16 17 18 19 20 21 22 23 24 25 26 27
000
ASUS45 KREV 272310
RWRNV
NEVADA REGIONAL WEATHER ROUNDUP
NATIONAL WEATHER SERVICE RENO NV
400 PM PDT TUE JUN 27 2017

NOTE: "FAIR" INDICATES FEW OR NO CLOUDS BELOW 12,000 FEET WITH NO
SIGNIFICANT WEATHER AND/OR OBSTRUCTIONS TO VISIBILITY.

NVZ001-003-004-280000-
WESTERN NEVADA

CITY           SKY/WX    TMP DP  RH WIND       PRES   REMARKS
RENO           SUNNY     89  26  10 NW15G26   29.97F
CARSON CITY    FAIR      84  28  13 W12G20    30.02F
MINDEN         FAIR      86  32  14 W17G23    30.01F
FALLON         SUNNY     91   6   4 VRB5      29.92F
LOVELOCK       SUNNY     89  25  10 S8G17     29.92F
HAWTHORNE      SUNNY     91  14   6 N14       29.91F
$$

NVZ002-CAZ072-073-280000-
NORTHERN AND CENTRAL SIERRA

CITY           SKY/WX    TMP DP  RH WIND       PRES   REMARKS
S. LAKE TAHOE  SUNNY     75  31  19 S9G18     30.13F
TRUCKEE        SUNNY     77  30  18 W15       30.13
SQUAW VLY 8000   N/A     61  36  39 SW7         N/A
SUSANVILLE     SUNNY     86  34  15 SW15G23   29.97F
MAMMOTH LAKES  FAIR      81  17   9 W14G23    30.19F
BRIDGEPORT     FAIR      77  19  11 SW12G21   30.15S
$$

NVZ030-031-036-280000-
NORTHERN NEVADA

CITY           SKY/WX    TMP DP  RH WIND       PRES   REMARKS
ELKO           SUNNY     86  21   9 SW12      29.98F
WINNEMUCCA     SUNNY     88  25  10 VRB6G20   29.94F
WENDOVER         N/A     90  26  10 CALM      29.87F
$$

NVZ035-037-280000-
CENTRAL NEVADA

CITY           SKY/WX    TMP DP  RH WIND       PRES   REMARKS
ELY            SUNNY     88  33  14 SW12G22   30.02F
EUREKA           N/A     87  13   6 W15G25    30.02F
$$

NVZ013-014-280000-
SOUTH CENTRAL NEVADA

CITY           SKY/WX    TMP DP  RH WIND       PRES   REMARKS
TONOPAH        SUNNY     90  13   6 W8        30.00F
$$

NVZ017-020-022-280000-
SOUTHERN NEVADA

CITY           SKY/WX    TMP DP  RH WIND       PRES   REMARKS
LAS VEGAS      SUNNY    106   6   2 S14G23    29.73F
N. LAS VEGAS   SUNNY    104  12   3 SW8G18    29.72F
NELLIS AFB     SUNNY    106  21   5 S10       29.70F
HENDERSON      SUNNY    105  23   5 SW14G25   29.78F
MERCURY        SUNNY    101  20   5 SW14G26   29.83F
$$




USA.gov is the U.S. government's official web portal to all federal, state and local government web resources and services.